Weather History for Rennes, France

Change the Weather History Date:

Thursday, February 21, 2013

  Actual Average Record
Temperature  
Mean Temperature 35 °F -  
Max Temperature 41 °F 52 °F 57 °F (1999)
Min Temperature 29 °F 38 °F 28 °F (2005)
Degree Days  
Heating Degree Days 30    
Moisture  
Dew Point 24 °F    
Average Humidity 64    
Maximum Humidity 81    
Minimum Humidity 41    
Precipitation  
Precipitation 0.00 in - - ()
Sea Level Pressure  
Sea Level Pressure 30.02 in    
Wind  
Wind Speed 11 mph ()    
Max Wind Speed 18 mph    
Max Gust Speed -    
Visibility 6.5 miles    
Events      
Averages and records for this station are not official NWS values.
T = Trace of Precipitation, MM = Missing Value Source: Averaged Metar Reports

Daily Weather History Graph

Daily Weather History Graph

Search for Another Location

Airport:

Trip Planner

Search our weather history database for the weather conditions in past years. The results will help you decide how hot, cold, wet, or windy it might be!

Date:

Astronomy

Feb. 21, 2013 Rise Set
Actual Time 8:02 AM CET 6:38 PM CET
Civil Twilight 7:31 AM CET 7:10 PM CET
Nautical Twilight 6:55 AM CET 7:46 PM CET
Astronomical Twilight 6:19 AM CET 8:22 PM CET
Moon 2:27 PM CET (2/21) 5:09 AM CET (2/21)
Length of Visible Light 11h 39m
Length of Day
10h 36m
Waxing Gibbous, 82% of the Moon is Illuminated
Feb 21
Waxing Gibbous
Feb 25
Full
Mar 4
Last Quarter
Mar 11
New
Mar 19
First Quarter

Hourly Weather History & Observations

Time (CET) Temp. Windchill Dew Point Humidity Pressure Visibility Wind Dir Wind Speed Gust Speed Precip Events Conditions
12:00 AM 37.4 °F 30.8 °F 30.2 °F 75% 30.06 in 6.2 mi East 9.2 mph - N/A   Unknown
12:30 AM 37.4 °F 29.8 °F 30.2 °F 75% 30.06 in 6.2 mi East 11.5 mph - N/A   Unknown
1:00 AM 36 °F - 29 °F 66% 30.08 in 6 mi East 10.4 mph - -   Clear
1:00 AM 35.6 °F 28.0 °F 28.4 °F 75% 30.06 in 5.6 mi East 10.4 mph - N/A   Unknown
1:30 AM 35.6 °F 28.0 °F 28.4 °F 75% 30.06 in 6.2 mi East 10.4 mph - N/A   Unknown
2:00 AM 35.6 °F 28.0 °F 28.4 °F 75% 30.06 in 6.2 mi East 10.4 mph - N/A   Unknown
2:30 AM 33.8 °F 25.8 °F 28.4 °F 81% 30.04 in 6.2 mi East 10.4 mph - N/A   Unknown
3:00 AM 33.8 °F 25.3 °F 26.6 °F 75% 30.04 in 6.2 mi East 11.5 mph - N/A   Unknown
3:30 AM 33.8 °F 25.3 °F 26.6 °F 75% 30.04 in 6.2 mi East 11.5 mph - N/A   Unknown
4:00 AM 32.0 °F 23.6 °F 24.8 °F 75% 30.04 in 6.2 mi East 10.4 mph - N/A   Unknown
4:30 AM 32.0 °F 23.6 °F 24.8 °F 75% 30.04 in 6.2 mi East 10.4 mph - N/A   Unknown
5:00 AM 32.0 °F 24.2 °F 24.8 °F 75% 30.04 in 6.2 mi East 9.2 mph - N/A   Unknown
5:30 AM 30.2 °F 21.3 °F 24.8 °F 80% 30.04 in 6.2 mi East 10.4 mph - N/A   Unknown
6:00 AM 30.2 °F 21.3 °F 24.8 °F 80% 30.04 in 6.2 mi East 10.4 mph - N/A   Unknown
6:30 AM 30.2 °F 22.6 °F 23.0 °F 75% 30.04 in 6.2 mi ENE 8.1 mph - N/A   Unknown
7:00 AM 30 °F - 23 °F 65% 30.06 in 11 mi East 10.4 mph - -   Clear
7:00 AM 30.2 °F 21.3 °F 23.0 °F 75% 30.04 in 6.2 mi East 10.4 mph - N/A   Unknown
7:30 AM 30.2 °F 21.3 °F 23.0 °F 75% 30.04 in 6.2 mi East 10.4 mph - N/A   Unknown
8:00 AM 30.2 °F 20.8 °F 23.0 °F 75% 30.04 in 6.2 mi East 11.5 mph - N/A   Unknown
8:30 AM 30.2 °F 20.8 °F 23.0 °F 75% 30.04 in 6.2 mi East 11.5 mph - N/A   Unknown
9:00 AM 32.0 °F 23.6 °F 23.0 °F 69% 30.06 in 6.2 mi East 10.4 mph - N/A   Unknown
9:30 AM 32.0 °F 22.5 °F 23.0 °F 69% 30.06 in 6.2 mi East 12.7 mph - N/A   Unknown
10:00 AM 33.8 °F 24.3 °F 23.0 °F 65% 30.06 in 6.2 mi East 13.8 mph - N/A   Unknown
10:30 AM 33.8 °F 23.9 °F 23.0 °F 65% 30.06 in 6.2 mi East 15.0 mph - N/A   Unknown
11:00 AM 35.6 °F 25.5 °F 23.0 °F 60% 30.06 in 6.2 mi East 17.3 mph - N/A   Unknown
11:30 AM 35.6 °F 25.5 °F 23.0 °F 60% 30.06 in 6.2 mi East 17.3 mph - N/A   Unknown
12:00 PM 37.4 °F 28.5 °F 23.0 °F 56% 30.06 in 6.2 mi ENE 15.0 mph - N/A   Unknown
12:30 PM 37.4 °F 27.8 °F 23.0 °F 56% 30.06 in 6.2 mi East 17.3 mph - N/A   Unknown
1:00 PM 38 °F - 23 °F 41% 30.06 in 11 mi ENE 18.4 mph - -   Clear
1:00 PM 39.2 °F 29.8 °F 23.0 °F 52% 30.04 in 6.2 mi ENE 18.4 mph - N/A   Unknown
1:30 PM 39.2 °F 30.2 °F 23.0 °F 52% 30.04 in 6.2 mi East 17.3 mph - N/A   Unknown
2:00 PM 39.2 °F 30.8 °F 23.0 °F 52% 30.01 in 6.2 mi ENE 15.0 mph - N/A   Unknown
2:30 PM 39.2 °F 29.8 °F 23.0 °F 52% 30.01 in 6.2 mi ENE 18.4 mph - N/A   Unknown
3:00 PM 41.0 °F 32.8 °F 24.8 °F 53% 30.01 in 6.2 mi East 16.1 mph - N/A   Unknown
3:30 PM 41.0 °F 33.1 °F 23.0 °F 49% 29.98 in 6.2 mi East 15.0 mph - N/A   Unknown
4:00 PM 41.0 °F 33.1 °F 24.8 °F 53% 29.98 in 6.2 mi East 15.0 mph - N/A   Unknown
4:30 PM 39.2 °F 30.8 °F 23.0 °F 52% 29.98 in 6.2 mi ENE 15.0 mph - N/A   Unknown
5:00 PM 39.2 °F 30.5 °F 23.0 °F 52% 29.98 in 6.2 mi ENE 16.1 mph - N/A   Unknown
5:30 PM 39.2 °F 30.5 °F 23.0 °F 52% 29.98 in 6.2 mi ENE 16.1 mph - N/A   Unknown
6:00 PM 37.4 °F 28.5 °F 21.2 °F 52% 29.98 in 6.2 mi ENE 15.0 mph - N/A   Unknown
6:30 PM 35.6 °F 27.1 °F 21.2 °F 56% 29.98 in 6.2 mi East 12.7 mph - N/A   Unknown
7:00 PM 34 °F - 21 °F 46% 30.01 in 12 mi East 11.5 mph - -   Clear
7:00 PM 33.8 °F 25.3 °F 21.2 °F 60% 29.98 in 6.2 mi East 11.5 mph - N/A   Unknown
7:30 PM 33.8 °F 23.9 °F 21.2 °F 60% 29.98 in 6.2 mi ENE 15.0 mph - N/A   Unknown
8:00 PM 33.8 °F 23.9 °F 21.2 °F 60% 29.98 in 6.2 mi ENE 15.0 mph - N/A   Unknown
8:30 PM 33.8 °F 24.8 °F 21.2 °F 60% 29.98 in 6.2 mi ENE 12.7 mph - N/A   Unknown
9:00 PM 32.0 °F 22.5 °F 21.2 °F 64% 29.98 in 6.2 mi ENE 12.7 mph - N/A   Unknown
9:30 PM 32.0 °F 22.5 °F 21.2 °F 64% 29.98 in 6.2 mi ENE 12.7 mph - N/A   Unknown
10:00 PM 32.0 °F 23.0 °F 21.2 °F 64% 29.98 in 6.2 mi ENE 11.5 mph - N/A   Unknown
10:30 PM 32.0 °F 23.6 °F 21.2 °F 64% 29.98 in 6.2 mi ENE 10.4 mph - N/A   Partly Cloudy
11:00 PM 32.0 °F 22.5 °F 19.4 °F 60% 29.98 in 6.2 mi East 12.7 mph - N/A   Unknown
11:30 PM 30.2 °F 20.8 °F 19.4 °F 64% 29.98 in 6.2 mi East 11.5 mph - N/A   Partly Cloudy